This is the latest recevied weather packets stored in our database for station/object OM6ACB-6. If no packets are shown the sender has not sent any weather packets the latest 10 day(s).
| Time | Temp. | Humidity | Pressure | Rain* | Wind** | Luminosity | Snow |
|---|---|---|---|---|---|---|---|
| 1777578666 | 2.22° C | 31% | 1027.3 hPa | 0 mm | - | - | - |
| 1777578066 | 3.33° C | 31% | 1027.5 hPa | 0 mm | - | - | - |
| 1777577465 | 3.33° C | 31% | 1027.4 hPa | 0 mm | - | - | - |
| 1777576865 | 3.89° C | 31% | 1027.5 hPa | 0 mm | - | - | - |
| 1777576265 | 4.44° C | 30% | 1027.5 hPa | 0 mm | - | - | - |
| 1777575665 | 3.89° C | 31% | 1027.4 hPa | 0 mm | - | - | - |
| 1777575064 | 4.44° C | 30% | 1027.4 hPa | 0 mm | - | - | - |
| 1777574464 | 3.89° C | 31% | 1027.2 hPa | 0 mm | - | - | - |
| 1777573864 | 3.89° C | 30% | 1027.2 hPa | 0 mm | - | - | - |
| 1777573263 | 5° C | 30% | 1027.3 hPa | 0 mm | - | - | - |
| 1777572663 | 6.67° C | 29% | 1027.5 hPa | 0 mm | - | - | - |
| 1777572063 | 7.78° C | 29% | 1027.5 hPa | 0 mm | - | - | - |
| 1777571463 | 8.33° C | 28% | 1027.5 hPa | 0 mm | - | - | - |
| 1777570862 | 8.89° C | 28% | 1027.7 hPa | 0 mm | - | - | - |
| 1777570262 | -31.67° C | - | - | - | - | - | - |
| 1777569662 | 9.44° C | 28% | 1027.6 hPa | 0 mm | - | - | - |
| 1777569061 | 10° C | 28% | 1027.8 hPa | 0 mm | - | - | - |
| 1777568461 | 10.56° C | 27% | 1027.7 hPa | 0 mm | - | - | - |
| 1777567861 | 11.67° C | 27% | 1027.9 hPa | 0 mm | - | - | - |
| 1777567260 | 11.67° C | 27% | 1027.8 hPa | 0 mm | - | - | - |
| 1777566660 | 11.67° C | 27% | 1027.8 hPa | 0 mm | - | - | - |
| 1777566060 | 12.22° C | 26% | 1027.9 hPa | 0 mm | - | - | - |
| 1777565460 | 12.22° C | 26% | 1027.9 hPa | 0 mm | - | - | - |
| 1777564859 | 12.78° C | 26% | 1027.9 hPa | 0 mm | - | - | - |
| 1777564259 | 12.78° C | 26% | 1028 hPa | 0 mm | - | - | - |
* Rain latest hour (hover to see other rain measurements)
** Current wind speed in m/s (hover to see current wind gust speed)